Location: Bergnershof
(48.9468°N, 10.9431°E)
Time: 10:25:04
(UTC+00:00)

NOSS 3-3 (C) - Pass Details

Date: 03 March 2021
Orbit: 813 x 1399 km, 63.4° (Epoch: 13 April)

Event Time Altitude Azimuth Distance (km) Brightness Sun altitude
Rises 20:08:06 0° 317° (NW) 3,938 8.2 -30.3°
Reaches altitude 10° 20:10:38 10° 317° (NW) 3,056 7.4 -30.7°
Maximum altitude 20:18:06 83° 231° (SW) 1,281 4.4 -31.8°
Enters shadow 20:18:47 76° 169° (S) 1,316 4.4 -31.8°
